Vertical_Velocity
-3 -2 4 1 -3 -4 -3 -4 -1 -4 -4 0 -14 -9 1 -1 -3 1 -10 4 6 1
-3 -2 -3 1 1 -4 -1 4 -2 -7 -4 -3 0 1 -0 1 -2 2 1 5 -2 1
-0 0 1 -3 -3 1 2 -1 -5 -1 -1 -0 0 -4 1 3 3 1 -0 -3 4 3
-1 1 3 -2 0 -1 2 1 4 0 -2 -4 -3 -4 3 4 -2 -6 -1 -4 3 -2
-2 -3 -6 -2 5 2 1 1 0 7 4 2 -2 -4 -2 -3 -4 -8 -2 2 11 -4
-2 -1 -5 -3 -1 -0 4 1 1 -1 0 -0 0 3 1 2 3 3 1 3 1 2
-1 -2 4 5 -1 -2 -3 0 1 -4 -3 -3 -2 1 1 5 4 3 1 0 5 1
6 5 3 1 1 3 -1 -1 -1 2 0 -0 -0 -2 -4 -4 -1 1 -9 -8 -6 1
1 1 0 1 -2 -0 2 1 2 -4 0 -2 -4 -6 -3 2 -4 2 4 3 5 -2
2 -1 -1 4 1 -0 -0 3 0 2 2 -2 -1 1 -1 5 4 2 -2 -3 -1 -1
-0 -3 4 3 0 -0 2 1 1 0 1 2 1 3 3 4 5 6 -1 1 -0 0
3 4 4 -2 1 4 0 2 -1 3 3 3 6 0 -1 5 -0 3 1 1 4 5
4 4 0 0 3 9 6 6 3 -3 -2 -2 -2 2 6 3 8 8 8 7 3 6
6 7 10 5 -6 5 2 3 5 1 -1 -3 5 2 -1 0 4 2 4 5 4 4
Height
1457 1461 1464 1466 1470 1474 1478 1482 1490 1495 1500 1506 1510 1516 1519 1522 1525 1527 1530 1532 1533 1535
1449 1453 1456 1461 1464 1467 1472 1476 1482 1488 1493 1498 1503 1508 1512 1515 1517 1520 1523 1524 1526 1528
1444 1447 1451 1455 1458 1460 1463 1468 1473 1477 1484 1490 1496 1501 1505 1507 1510 1512 1514 1516 1518 1519
1439 1444 1447 1449 1451 1454 1459 1462 1465 1470 1475 1481 1487 1492 1496 1499 1500 1504 1506 1508 1509 1510
1435 1437 1440 1443 1446 1450 1453 1458 1462 1466 1468 1472 1477 1481 1485 1487 1490 1494 1496 1499 1500 1500
1425 1427 1429 1433 1439 1445 1449 1452 1456 1460 1463 1466 1470 1474 1476 1479 1482 1485 1487 1488 1490 1491
1417 1418 1421 1426 1431 1435 1440 1445 1448 1451 1455 1459 1463 1467 1470 1472 1474 1475 1477 1479 1480 1480
1409 1414 1418 1420 1422 1425 1429 1433 1438 1442 1445 1448 1451 1454 1458 1462 1464 1466 1468 1469 1469 1470
1405 1407 1408 1411 1414 1418 1420 1423 1428 1430 1434 1437 1439 1442 1446 1450 1451 1454 1457 1457 1459 1459
1396 1398 1399 1402 1406 1408 1409 1414 1417 1420 1423 1425 1428 1431 1434 1437 1440 1443 1444 1446 1448 1449
1386 1387 1392 1394 1394 1397 1401 1402 1405 1409 1413 1417 1420 1424 1427 1430 1433 1435 1435 1437 1438 1438
1376 1378 1382 1384 1385 1388 1392 1395 1398 1403 1407 1410 1413 1415 1419 1423 1424 1425 1426 1427 1427 1428
1371 1371 1373 1377 1382 1382 1384 1387 1390 1393 1398 1401 1404 1406 1409 1411 1413 1415 1416 1417 1417 1418
1364 1365 1367 1367 1374 1376 1376 1377 1381 1384 1389 1393 1397 1396 1399 1402 1404 1405 1407 1408 1410 1411